EW0600 Weather Reports


Display with metric or nautical units.
time (UTC)temp
F
wind
direction
speed
MPH
gust
MPH
rain 1hr
in
rain 24hr
in
rain mn
in
humidity
%
barometer
mb
20260502191603 61 243 12.0 20.0 0.00 0.00 0.00 39 1012.4
20260502191512 61 252 11.0 19.0 0.00 0.00 0.00 41 1012.4
20260502190447 61 276 10.0 19.0 0.00 0.00 0.00 38 1012.7
20260502190003 60 255 11.0 20.0 0.00 0.00 0.00 39 1012.7
20260502185421 61 278 9.0 17.0 0.00 0.00 0.00 37 1012.8
20260502184411 60 218 9.0 18.0 0.00 0.00 0.00 39 1013.0
20260502183406 60 287 9.0 18.0 0.00 0.00 0.00 41 1013.3
20260502183002 59 226 9.0 19.0 0.00 0.00 0.00 42 1013.4
20260502182344 59 262 10.0 18.0 0.00 0.00 0.00 38 1013.5
20260502181604 58 223 10.0 18.0 0.00 0.00 0.00 39 1013.6
20260502181343 58 206 9.0 17.0 0.00 0.00 0.00 41 1013.6
20260502180325 58 232 9.0 19.0 0.00 0.00 0.00 38 1013.9
20260502170128 56 281 9.0 16.0 0.00 0.00 0.00 45 1014.9
20260502170110 55 231 11.0 17.0 0.00 0.00 0.00 42 1015.0
20260502164130 55 274 8.0 16.0 0.00 0.00 0.00 40 1015.1
20260502163103 55 229 4.0 16.0 0.00 0.00 0.00 45 1015.4
20260502163101 55 231 8.0 15.0 0.00 0.00 0.00 45 1015.4
20260502161502 53 278 7.0 16.0 0.00 0.00 0.00 45 1015.6
20260502160913 54 280 9.0 20.0 0.00 0.00 0.00 46 1015.6
20260502151659 52 249 12.0 17.0 0.00 0.00 0.00 51 1016.1
20260502151503 51 277 13.0 17.0 0.00 0.00 0.00 51 1016.2
20260502150652 52 266 10.0 16.0 0.00 0.00 0.00 50 1016.2
20260502140104 46 258 6.0 11.0 0.00 0.00 0.00 61 1016.8
20260502130340 41 268 4.0 7.0 0.00 0.00 0.00 69 1016.8
20260502123328 39 255 3.0 6.0 0.00 0.00 0.00 72 1016.9
20260502123104 38 233 4.0 7.0 0.00 0.00 0.00 74 1016.9
20260502122331 38 238 2.0 4.0 0.00 0.00 0.00 74 1016.8
20260502121505 36 251 1.0 2.0 0.00 0.00 0.00 76 1016.9
20260502121334 37 251 0.0 2.0 0.00 0.00 0.00 76 1016.8
20260502120333 36 259 1.0 2.0 0.00 0.00 0.00 75 1016.8
20260502120106 36 246 2.0 3.0 0.00 0.00 0.00 74 1016.8
20260502115306 36 243 0.0 2.0 0.00 0.00 0.00 74 1016.7
20260502114503 35 243 1.0 3.0 0.00 0.00 0.00 74 1016.7
20260502113110 35 208 1.0 1.0 0.00 0.00 0.00 74 1016.6
20260502113104 35 208 1.0 2.0 0.00 0.00 0.00 74 1016.6
20260502112112 35 211 1.0 2.0 0.00 0.00 0.00 75 1016.5
20260502111503 34 221 1.0 3.0 0.00 0.00 0.00 75 1016.6
20260502111111 34 221 1.0 2.0 0.00 0.00 0.00 76 1016.5
20260502110103 34 209 0.0 2.0 0.00 0.00 0.00 75 1016.6
20260502105005 35 255 0.0 0.0 0.00 0.00 0.00 74 1016.5
20260502104502 34 255 0.0 2.0 0.00 0.00 0.00 74 1016.6
20260502103934 35 233 0.0 1.0 0.00 0.00 0.00 74 1016.6
20260502103110 34 213 1.0 2.0 0.00 0.00 0.00 74 1016.7
20260502102905 35 213 0.0 1.0 0.00 0.00 0.00 74 1016.6
20260502101909 35 236 0.0 1.0 0.00 0.00 0.00 74 1016.5
20260502101506 34 226 0.0 2.0 0.00 0.00 0.00 75 1016.6
20260502100910 34 250 0.0 1.0 0.00 0.00 0.00 75 1016.5
20260502100104 34 238 0.0 3.0 0.00 0.00 0.00 74 1016.5
20260502091502 35 204 2.0 4.0 0.00 0.00 0.00 72 1016.5
20260502090837 36 205 2.0 3.0 0.00 0.00 0.00 72 1016.4
20260502090105 36 212 2.0 4.0 0.00 0.00 0.00 70 1016.5
20260502071502 36 222 0.0 1.0 0.00 0.00 0.00 71 1016.6
20260502070708 36 222 0.0 0.0 0.00 0.00 0.00 69 1016.6
20260502070104 36 222 0.0 2.0 0.00 0.00 0.00 68 1016.6
20260502065705 37 223 0.0 2.0 0.00 0.00 0.00 67 1016.6
20260502064704 37 222 1.0 2.0 0.00 0.00 0.00 67 1016.6
20260502064503 37 222 1.0 3.0 0.00 0.00 0.00 67 1016.7
20260502063652 37 221 1.0 2.0 0.00 0.00 0.00 68 1016.7
20260502063104 37 221 2.0 3.0 0.00 0.00 0.00 69 1016.7
20260502062620 38 236 1.0 1.0 0.00 0.00 0.00 69 1016.7
20260502061549 38 236 0.0 1.0 0.00 0.00 0.00 69 1016.7
20260502061502 37 243 2.0 2.0 0.00 0.00 0.00 68 1016.7
20260502055433 38 252 1.0 2.0 0.00 0.00 0.00 66 1016.7
20260502054501 38 240 1.0 2.0 0.00 0.00 0.00 66 1016.8
20260502054414 38 240 0.0 1.0 0.00 0.00 0.00 66 1016.7
20260502053354 38 240 0.0 1.0 0.00 0.00 0.00 67 1016.7
20260502053103 38 240 1.0 2.0 0.00 0.00 0.00 69 1016.8
20260502052348 39 240 0.0 0.0 0.00 0.00 0.00 66 1016.7
20260502051503 38 240 0.0 2.0 0.00 0.00 0.00 65 1016.7
20260502050154 39 240 0.0 0.0 0.00 0.00 0.00 65 1016.6
20260502045202 39 240 0.0 0.0 0.00 0.00 0.00 66 1016.5
20260502044502 38 240 0.0 1.0 0.00 0.00 0.00 67 1016.6
20260502044222 39 240 0.0 0.0 0.00 0.00 0.00 67 1016.5
20260502043157 39 240 0.0 0.0 0.00 0.00 0.00 66 1016.5
20260502043108 39 240 1.0 1.0 0.00 0.00 0.00 66 1016.6
20260502042206 39 240 0.0 0.0 0.00 0.00 0.00 64 1016.5
20260502041502 39 240 0.0 1.0 0.00 0.00 0.00 63 1016.5
20260502041207 40 240 0.0 1.0 0.00 0.00 0.00 62 1016.5
20260502040227 40 240 0.0 1.0 0.00 0.00 0.00 62 1016.5
20260502035224 41 240 0.0 1.0 0.00 0.00 0.00 61 1016.5
20260502034503 41 240 1.0 2.0 0.00 0.00 0.00 59 1016.6
20260502034228 42 240 0.0 1.0 0.00 0.00 0.00 59 1016.5
20260502033226 42 240 0.0 1.0 0.00 0.00 0.00 59 1016.6
20260502033102 41 240 1.0 2.0 0.00 0.00 0.00 59 1016.6
20260502032156 42 240 0.0 2.0 0.00 0.00 0.00 60 1016.6
20260502031503 41 239 1.0 3.0 0.00 0.00 0.00 59 1016.7
20260502031130 42 264 1.0 2.0 0.00 0.00 0.00 59 1016.6
20260502030121 42 264 1.0 1.0 0.00 0.00 0.00 58 1016.6
20260502025134 42 265 0.0 2.0 0.00 0.00 0.00 57 1016.5
20260502024503 42 265 1.0 1.0 0.00 0.00 0.00 58 1016.6
20260502024128 42 265 0.0 2.0 0.00 0.00 0.00 58 1016.5
20260502023103 43 266 0.0 1.0 0.00 0.00 0.00 56 1016.5
20260502022048 44 275 0.0 1.0 0.00 0.00 0.00 56 1016.4
20260502021502 43 275 0.0 2.0 0.00 0.00 0.00 54 1016.5
20260502021032 44 275 0.0 1.0 0.00 0.00 0.00 53 1016.4
20260502020022 45 276 1.0 1.0 0.00 0.00 0.00 53 1016.3
20260502015013 45 283 0.0 0.0 0.00 0.00 0.00 53 1016.2
20260502014502 45 284 1.0 2.0 0.00 0.00 0.00 52 1016.2
20260502013939 46 308 0.0 1.0 0.00 0.00 0.00 50 1016.1
20260502013102 47 308 1.0 2.0 0.00 0.00 0.00 49 1016.1
20260502012904 48 308 1.0 2.0 0.00 0.00 0.00 48 1016.0
20260502011841 49 309 1.0 3.0 0.00 0.00 0.00 44 1016.0
20260502011604 49 308 2.0 4.0 0.00 0.00 0.00 43 1015.9
20260502010843 50 309 1.0 4.0 0.00 0.00 0.00 46 1015.9
20260502010002 50 300 3.0 5.0 0.00 0.00 0.00 44 1015.9
20260502005845 50 300 3.0 6.0 0.00 0.00 0.00 43 1015.8
20260502004903 51 296 5.0 10.0 0.00 0.00 0.00 41 1015.9
20260502004611 50 303 6.0 11.0 0.00 0.00 0.00 42 1015.9
20260502003838 51 313 5.0 10.0 0.00 0.00 0.00 41 1015.9
20260502003002 51 297 2.0 7.0 0.00 0.00 0.00 43 1015.9
20260502002812 51 274 3.0 6.0 0.00 0.00 0.00 40 1015.9
20260502001753 51 283 5.0 9.0 0.00 0.00 0.00 40 1015.8
20260502001602 51 276 5.0 9.0 0.00 0.00 0.00 40 1015.9
20260502000758 51 330 6.0 9.0 0.00 0.00 0.00 42 1015.8
20260502000002 50 311 7.0 9.0 0.00 0.00 0.00 42 1015.8
20260501234711 50 323 4.0 11.0 0.00 0.00 0.00 44 1015.8
20260501234602 49 332 5.0 11.0 0.00 0.00 0.00 45 1015.8
20260501233708 51 334 7.0 15.0 0.00 0.00 0.00 40 1015.8
20260501233003 50 332 7.0 12.0 0.00 0.00 0.00 39 1015.9
20260501232635 51 330 8.0 15.0 0.00 0.00 0.00 40 1015.7
20260501231617 52 335 5.0 14.0 0.00 0.00 0.00 38 1015.7
20260501231608 52 324 6.0 15.0 0.00 0.00 0.00 38 1015.7
20260501230003 52 41 7.0 20.0 0.00 0.00 0.00 42 1015.9
20260501225440 52 330 6.0 19.0 0.00 0.00 0.00 41 1015.9
20260501224602 51 333 6.0 12.0 0.00 0.00 0.00 38 1015.9
20260501224436 52 337 5.0 14.0 0.00 0.00 0.00 39 1015.9
20260501223403 51 320 9.0 14.0 0.00 0.00 0.00 38 1015.8
20260501223006 51 295 10.0 15.0 0.00 0.00 0.00 40 1015.9
20260501221606 51 345 3.0 11.0 0.00 0.00 0.00 40 1016.0
20260501221253 52 1 2.0 10.0 0.00 0.00 0.00 39 1015.9
20260501220249 52 47 2.0 6.0 0.00 0.00 0.00 40 1015.9
20260501220107 51 47 2.0 9.0 0.00 0.00 0.00 40 1015.9
20260501215226 51 342 8.0 13.0 0.00 0.00 0.00 39 1015.9
20260501214502 50 320 10.0 14.0 0.00 0.00 0.00 40 1015.9
20260501214236 51 333 7.0 13.0 0.00 0.00 0.00 43 1015.9
20260501213228 51 331 5.0 14.0 0.00 0.00 0.00 43 1015.8
20260501213113 51 346 3.0 15.0 0.00 0.00 0.00 40 1015.9
20260501212230 50 349 8.0 14.0 0.00 0.00 0.00 44 1015.9
20260501211503 50 334 8.0 13.0 0.00 0.00 0.00 44 1016.1
20260501211219 51 350 5.0 13.0 0.00 0.00 0.00 40 1016.0
20260501210103 50 288 7.0 14.0 0.00 0.00 0.00 43 1016.0
20260501205031 50 333 6.0 12.0 0.00 0.00 0.00 40 1016.1
20260501204503 50 10 6.0 13.0 0.00 0.00 0.00 41 1016.2
20260501204008 50 345 5.0 11.0 0.00 0.00 0.00 41 1016.2
20260501203102 50 331 7.0 12.0 0.00 0.00 0.00 41 1016.3
20260501203030 51 330 6.0 12.0 0.00 0.00 0.00 41 1016.2
20260501201503 51 6 5.0 15.0 0.00 0.00 0.00 40 1016.2
20260501200936 51 340 6.0 17.0 0.00 0.00 0.00 46 1016.2
20260501195920 51 331 5.0 17.0 0.00 0.00 0.00 44 1016.3
20260501194849 50 309 5.0 14.0 0.00 0.00 0.00 43 1016.2
20260501194505 49 316 8.0 16.0 0.00 0.00 0.00 43 1016.3
20260501193858 49 326 7.0 19.0 0.00 0.00 0.00 41 1016.3
20260501193102 49 34 9.0 20.0 0.00 0.00 0.00 42 1016.4